Time,TemperatureF,DewpointF,PressureIn,WindDirection,WindDirectionDegrees,WindSpeedMPH,WindSpeedGustMPH,Humidity,HourlyPrecipIn,Conditions,Clouds,dailyrainin,SoftwareType,DateUTC
2013-04-25 00:00:00,67.3,56.4,29.95,North,0,0.0,0.0,68,0.00,,,0.00,WUHU216HW,2013-04-25 04:00:00,
2013-04-25 00:01:00,67.3,56.4,29.95,North,0,0.0,0.0,68,0.00,,,0.00,WUHU216HW,2013-04-25 04:01:00,
2013-04-25 00:02:00,67.3,56.4,29.95,North,0,0.0,0.0,68,0.00,,,0.00,WUHU216HW,2013-04-25 04:02:00,
2013-04-25 00:07:00,67.3,56.4,29.95,North,0,0.0,0.0,68,0.00,,,0.00,WUHU216HW,2013-04-25 04:07:00,
2013-04-25 00:30:00,66.4,56.3,29.95,North,0,0.0,0.0,70,0.00,,,0.00,WUHU216HW,2013-04-25 04:30:00,
2013-04-25 00:31:00,66.4,56.3,29.95,North,0,0.0,0.0,70,0.00,,,0.00,WUHU216HW,2013-04-25 04:31:00,
2013-04-25 00:36:00,66.4,56.3,29.95,North,0,0.0,0.0,70,0.00,,,0.00,WUHU216HW,2013-04-25 04:36:00,
2013-04-25 01:00:00,65.7,56.4,29.95,North,0,0.0,0.0,72,0.00,,,0.00,WUHU216HW,2013-04-25 05:00:00,
2013-04-25 01:01:00,65.7,56.4,29.95,North,0,0.0,0.0,72,0.00,,,0.00,WUHU216HW,2013-04-25 05:01:00,
2013-04-25 01:06:00,65.7,56.4,29.95,North,0,0.0,0.0,72,0.00,,,0.00,WUHU216HW,2013-04-25 05:06:00,
2013-04-25 01:30:00,65.2,56.3,29.96,North,0,0.0,0.0,73,0.00,,,0.00,WUHU216HW,2013-04-25 05:30:00,
2013-04-25 01:31:00,65.2,56.3,29.96,North,0,0.0,0.0,73,0.00,,,0.00,WUHU216HW,2013-04-25 05:31:00,
2013-04-25 01:36:00,65.2,56.3,29.96,North,0,0.0,0.0,73,0.00,,,0.00,WUHU216HW,2013-04-25 05:36:00,
2013-04-25 02:00:00,64.8,56.4,29.96,North,0,0.0,0.0,74,0.00,,,0.00,WUHU216HW,2013-04-25 06:00:00,
2013-04-25 02:01:00,64.8,56.4,29.96,North,0,0.0,0.0,74,0.00,,,0.00,WUHU216HW,2013-04-25 06:01:00,
2013-04-25 02:06:00,64.8,56.4,29.96,North,0,0.0,0.0,74,0.00,,,0.00,WUHU216HW,2013-04-25 06:06:00,
2013-04-25 02:30:00,64.3,56.2,29.96,North,0,0.0,0.0,75,0.00,,,0.00,WUHU216HW,2013-04-25 06:30:00,
2013-04-25 02:31:00,64.3,56.2,29.96,North,0,0.0,0.0,75,0.00,,,0.00,WUHU216HW,2013-04-25 06:31:00,
2013-04-25 02:36:00,64.3,56.2,29.96,North,0,0.0,0.0,75,0.00,,,0.00,WUHU216HW,2013-04-25 06:36:00,
2013-04-25 03:00:00,64.1,56.3,29.96,North,0,0.0,0.0,76,0.00,,,0.00,WUHU216HW,2013-04-25 07:00:00,
2013-04-25 03:01:00,64.1,56.3,29.96,North,0,0.0,0.0,76,0.00,,,0.00,WUHU216HW,2013-04-25 07:01:00,
2013-04-25 03:06:00,64.1,56.3,29.96,North,0,0.0,0.0,76,0.00,,,0.00,WUHU216HW,2013-04-25 07:06:00,
2013-04-25 03:30:00,63.9,56.5,29.96,North,0,0.0,0.0,77,0.00,,,0.00,WUHU216HW,2013-04-25 07:30:00,
2013-04-25 03:31:00,63.9,56.5,29.96,North,0,0.0,0.0,77,0.00,,,0.00,WUHU216HW,2013-04-25 07:31:00,
2013-04-25 03:36:00,63.9,56.5,29.96,North,0,0.0,0.0,77,0.00,,,0.00,WUHU216HW,2013-04-25 07:36:00,
2013-04-25 04:00:00,63.7,56.7,29.97,North,0,0.0,0.0,78,0.00,,,0.00,WUHU216HW,2013-04-25 08:00:00,
2013-04-25 04:01:00,63.7,56.7,29.97,North,0,0.0,0.0,78,0.00,,,0.00,WUHU216HW,2013-04-25 08:01:00,
2013-04-25 04:06:00,63.7,56.7,29.97,North,0,0.0,0.0,78,0.00,,,0.00,WUHU216HW,2013-04-25 08:06:00,
2013-04-25 04:30:00,63.5,56.9,29.98,North,0,0.0,0.0,79,0.00,,,0.00,WUHU216HW,2013-04-25 08:30:00,
2013-04-25 04:31:00,63.5,56.9,29.98,North,0,0.0,0.0,79,0.00,,,0.00,WUHU216HW,2013-04-25 08:31:00,
2013-04-25 04:36:00,63.5,56.9,29.98,North,0,0.0,0.0,79,0.00,,,0.00,WUHU216HW,2013-04-25 08:36:00,
2013-04-25 05:00:00,63.0,54.5,30.00,North,0,0.0,0.0,74,0.00,,,0.00,WUHU216HW,2013-04-25 09:00:00,
2013-04-25 05:01:00,63.0,54.5,30.00,North,0,0.0,0.0,74,0.00,,,0.00,WUHU216HW,2013-04-25 09:01:00,
2013-04-25 05:06:00,63.0,54.5,30.00,North,0,0.0,0.0,74,0.00,,,0.00,WUHU216HW,2013-04-25 09:06:00,
2013-04-25 05:30:00,62.5,52.6,30.01,North,0,0.0,0.0,70,0.00,,,0.00,WUHU216HW,2013-04-25 09:30:00,
2013-04-25 05:31:00,62.5,52.6,30.01,North,0,0.0,0.0,70,0.00,,,0.00,WUHU216HW,2013-04-25 09:31:00,
2013-04-25 05:36:00,62.5,52.6,30.01,North,0,0.0,0.0,70,0.00,,,0.00,WUHU216HW,2013-04-25 09:36:00,
2013-04-25 06:00:00,61.9,51.3,30.03,North,0,0.0,0.0,68,0.00,,,0.00,WUHU216HW,2013-04-25 10:00:00,
2013-04-25 06:01:00,61.9,51.3,30.03,North,0,0.0,0.0,68,0.00,,,0.00,WUHU216HW,2013-04-25 10:01:00,
2013-04-25 06:06:00,61.9,51.3,30.03,North,0,0.0,0.0,68,0.00,,,0.00,WUHU216HW,2013-04-25 10:06:00,
2013-04-25 06:30:00,60.7,48.9,30.05,North,0,0.0,0.0,65,0.00,,,0.00,WUHU216HW,2013-04-25 10:30:00,
2013-04-25 06:31:00,60.7,48.9,30.05,North,0,0.0,0.0,65,0.00,,,0.00,WUHU216HW,2013-04-25 10:31:00,
2013-04-25 06:36:00,60.7,48.9,30.05,North,0,0.0,0.0,65,0.00,,,0.00,WUHU216HW,2013-04-25 10:36:00,
2013-04-25 07:00:00,59.2,47.0,30.08,North,0,0.0,0.0,64,0.00,,,0.00,WUHU216HW,2013-04-25 11:00:00,
2013-04-25 07:01:00,59.2,47.0,30.08,North,0,0.0,0.0,64,0.00,,,0.00,WUHU216HW,2013-04-25 11:01:00,
2013-04-25 07:06:00,59.2,47.0,30.08,North,0,0.0,0.0,64,0.00,,,0.00,WUHU216HW,2013-04-25 11:06:00,
2013-04-25 07:30:00,57.8,45.6,30.10,North,0,0.0,0.0,64,0.00,,,0.00,WUHU216HW,2013-04-25 11:30:00,
2013-04-25 07:31:00,57.8,45.6,30.10,North,0,0.0,0.0,64,0.00,,,0.00,WUHU216HW,2013-04-25 11:31:00,
2013-04-25 07:36:00,57.8,45.6,30.10,North,0,0.0,0.0,64,0.00,,,0.00,WUHU216HW,2013-04-25 11:36:00,
2013-04-25 08:00:00,56.9,44.8,30.12,North,0,0.0,0.0,64,0.00,,,0.00,WUHU216HW,2013-04-25 12:00:00,
2013-04-25 08:01:00,56.9,44.8,30.12,North,0,0.0,0.0,64,0.00,,,0.00,WUHU216HW,2013-04-25 12:01:00,
2013-04-25 08:06:00,56.9,44.8,30.12,North,0,0.0,0.0,64,0.00,,,0.00,WUHU216HW,2013-04-25 12:06:00,
2013-04-25 08:30:00,56.0,43.1,30.12,North,0,0.0,0.0,62,0.00,,,0.00,WUHU216HW,2013-04-25 12:30:00,
2013-04-25 08:31:00,56.0,43.1,30.12,North,0,0.0,0.0,62,0.00,,,0.00,WUHU216HW,2013-04-25 12:31:00,
2013-04-25 08:36:00,56.0,43.1,30.12,North,0,0.0,0.0,62,0.00,,,0.00,WUHU216HW,2013-04-25 12:36:00,
2013-04-25 09:00:00,55.8,42.6,30.14,North,0,0.0,0.0,61,0.00,,,0.00,WUHU216HW,2013-04-25 13:00:00,
2013-04-25 09:01:00,55.8,42.6,30.14,North,0,0.0,0.0,61,0.00,,,0.00,WUHU216HW,2013-04-25 13:01:00,
2013-04-25 09:06:00,55.8,42.6,30.14,North,0,0.0,0.0,61,0.00,,,0.00,WUHU216HW,2013-04-25 13:06:00,
2013-04-25 09:30:00,56.3,42.2,30.14,North,0,0.0,0.0,59,0.00,,,0.00,WUHU216HW,2013-04-25 13:30:00,
2013-04-25 09:31:00,56.3,42.2,30.14,North,0,0.0,0.0,59,0.00,,,0.00,WUHU216HW,2013-04-25 13:31:00,
2013-04-25 09:36:00,56.3,42.2,30.14,North,0,0.0,0.0,59,0.00,,,0.00,WUHU216HW,2013-04-25 13:36:00,
2013-04-25 10:00:00,58.0,43.3,30.14,North,0,0.0,0.0,58,0.00,,,0.00,WUHU216HW,2013-04-25 14:00:00,
2013-04-25 10:01:00,58.0,43.3,30.14,North,0,0.0,0.0,58,0.00,,,0.00,WUHU216HW,2013-04-25 14:01:00,
2013-04-25 10:06:00,58.0,43.3,30.14,North,0,0.0,0.0,58,0.00,,,0.00,WUHU216HW,2013-04-25 14:06:00,
2013-04-25 10:30:00,60.1,43.4,30.14,North,0,0.0,0.0,54,0.00,,,0.00,WUHU216HW,2013-04-25 14:30:00,
2013-04-25 10:31:00,60.1,43.4,30.14,North,0,0.0,0.0,54,0.00,,,0.00,WUHU216HW,2013-04-25 14:31:00,
2013-04-25 10:36:00,60.1,43.4,30.14,North,0,0.0,0.0,54,0.00,,,0.00,WUHU216HW,2013-04-25 14:36:00,
2013-04-25 11:00:00,62.6,43.7,30.14,North,0,0.0,0.0,50,0.00,,,0.00,WUHU216HW,2013-04-25 15:00:00,
2013-04-25 11:01:00,62.6,43.7,30.14,North,0,0.0,0.0,50,0.00,,,0.00,WUHU216HW,2013-04-25 15:01:00,
2013-04-25 11:06:00,62.6,43.7,30.14,North,0,0.0,0.0,50,0.00,,,0.00,WUHU216HW,2013-04-25 15:06:00,
2013-04-25 11:30:00,63.9,44.3,30.13,North,0,0.0,0.0,49,0.00,,,0.00,WUHU216HW,2013-04-25 15:30:00,
2013-04-25 11:31:00,63.9,44.3,30.13,North,0,0.0,0.0,49,0.00,,,0.00,WUHU216HW,2013-04-25 15:31:00,
2013-04-25 11:36:00,63.9,44.3,30.13,North,0,0.0,0.0,49,0.00,,,0.00,WUHU216HW,2013-04-25 15:36:00,
2013-04-25 12:00:00,64.8,44.6,30.14,North,0,0.0,0.0,48,0.00,,,0.00,WUHU216HW,2013-04-25 16:00:00,
2013-04-25 12:01:00,64.8,44.6,30.14,North,0,0.0,0.0,48,0.00,,,0.00,WUHU216HW,2013-04-25 16:01:00,
2013-04-25 12:06:00,64.8,44.6,30.14,North,0,0.0,0.0,48,0.00,,,0.00,WUHU216HW,2013-04-25 16:06:00,
2013-04-25 12:30:00,67.0,46.0,30.14,North,0,0.0,0.0,47,0.00,,,0.00,WUHU216HW,2013-04-25 16:30:00,
2013-04-25 12:31:00,67.0,46.0,30.14,North,0,0.0,0.0,47,0.00,,,0.00,WUHU216HW,2013-04-25 16:31:00,
2013-04-25 12:36:00,67.0,46.0,30.14,North,0,0.0,0.0,47,0.00,,,0.00,WUHU216HW,2013-04-25 16:36:00,
2013-04-25 13:00:00,68.6,46.9,30.14,North,0,0.0,0.0,46,0.00,,,0.00,WUHU216HW,2013-04-25 17:00:00,
2013-04-25 13:01:00,68.6,46.9,30.14,North,0,0.0,0.0,46,0.00,,,0.00,WUHU216HW,2013-04-25 17:01:00,
2013-04-25 13:06:00,68.6,46.9,30.14,North,0,0.0,0.0,46,0.00,,,0.00,WUHU216HW,2013-04-25 17:06:00,
2013-04-25 13:30:00,69.7,47.9,30.13,North,0,0.0,0.0,46,0.00,,,0.00,WUHU216HW,2013-04-25 17:30:00,
2013-04-25 13:31:00,69.7,47.9,30.13,North,0,0.0,0.0,46,0.00,,,0.00,WUHU216HW,2013-04-25 17:31:00,
2013-04-25 13:36:00,69.7,47.9,30.13,North,0,0.0,0.0,46,0.00,,,0.00,WUHU216HW,2013-04-25 17:36:00,
2013-04-25 14:00:00,70.0,47.6,30.13,North,0,0.0,0.0,45,0.00,,,0.00,WUHU216HW,2013-04-25 18:00:00,
2013-04-25 14:01:00,70.0,47.6,30.13,North,0,0.0,0.0,45,0.00,,,0.00,WUHU216HW,2013-04-25 18:01:00,
2013-04-25 14:06:00,70.0,47.6,30.13,North,0,0.0,0.0,45,0.00,,,0.00,WUHU216HW,2013-04-25 18:06:00,
2013-04-25 14:30:00,71.5,48.3,30.13,North,0,0.0,0.0,44,0.00,,,0.00,WUHU216HW,2013-04-25 18:30:00,
2013-04-25 14:31:00,71.5,48.3,30.13,North,0,0.0,0.0,44,0.00,,,0.00,WUHU216HW,2013-04-25 18:31:00,
2013-04-25 14:36:00,71.5,48.3,30.13,North,0,0.0,0.0,44,0.00,,,0.00,WUHU216HW,2013-04-25 18:36:00,
2013-04-25 15:00:00,71.6,47.3,30.12,North,0,0.0,0.0,42,0.00,,,0.00,WUHU216HW,2013-04-25 19:00:00,
2013-04-25 15:01:00,71.6,47.3,30.12,North,0,0.0,0.0,42,0.00,,,0.00,WUHU216HW,2013-04-25 19:01:00,
2013-04-25 15:06:00,71.6,47.3,30.12,North,0,0.0,0.0,42,0.00,,,0.00,WUHU216HW,2013-04-25 19:06:00,
2013-04-25 15:30:00,72.0,46.5,30.11,North,0,0.0,0.0,40,0.00,,,0.00,WUHU216HW,2013-04-25 19:30:00,
2013-04-25 15:31:00,72.0,46.5,30.11,North,0,0.0,0.0,40,0.00,,,0.00,WUHU216HW,2013-04-25 19:31:00,
2013-04-25 15:36:00,72.0,46.5,30.11,North,0,0.0,0.0,40,0.00,,,0.00,WUHU216HW,2013-04-25 19:36:00,
2013-04-25 16:00:00,71.6,44.7,30.10,North,0,0.0,0.0,38,0.00,,,0.00,WUHU216HW,2013-04-25 20:00:00,
2013-04-25 16:01:00,71.6,44.7,30.10,North,0,0.0,0.0,38,0.00,,,0.00,WUHU216HW,2013-04-25 20:01:00,
2013-04-25 16:06:00,71.6,44.7,30.10,North,0,0.0,0.0,38,0.00,,,0.00,WUHU216HW,2013-04-25 20:06:00,
2013-04-25 16:30:00,71.5,43.8,30.09,North,0,0.0,0.0,37,0.00,,,0.00,WUHU216HW,2013-04-25 20:30:00,
2013-04-25 16:31:00,71.5,43.8,30.09,North,0,0.0,0.0,37,0.00,,,0.00,WUHU216HW,2013-04-25 20:31:00,
2013-04-25 16:36:00,71.5,43.8,30.09,North,0,0.0,0.0,37,0.00,,,0.00,WUHU216HW,2013-04-25 20:36:00,
2013-04-25 17:00:00,71.1,43.4,30.08,North,0,0.0,0.0,37,0.00,,,0.00,WUHU216HW,2013-04-25 21:00:00,
2013-04-25 17:01:00,71.1,43.4,30.08,North,0,0.0,0.0,37,0.00,,,0.00,WUHU216HW,2013-04-25 21:01:00,
2013-04-25 17:06:00,71.1,43.4,30.08,North,0,0.0,0.0,37,0.00,,,0.00,WUHU216HW,2013-04-25 21:06:00,
2013-04-25 17:30:00,70.9,42.5,30.08,North,0,0.0,0.0,36,0.00,,,0.00,WUHU216HW,2013-04-25 21:30:00,
2013-04-25 17:31:00,70.9,42.5,30.08,North,0,0.0,0.0,36,0.00,,,0.00,WUHU216HW,2013-04-25 21:31:00,
2013-04-25 17:36:00,70.9,42.5,30.08,North,0,0.0,0.0,36,0.00,,,0.00,WUHU216HW,2013-04-25 21:36:00,
2013-04-25 18:00:00,70.9,40.2,30.09,North,0,0.0,0.0,33,0.00,,,0.00,WUHU216HW,2013-04-25 22:00:00,
2013-04-25 18:01:00,70.9,40.2,30.09,North,0,0.0,0.0,33,0.00,,,0.00,WUHU216HW,2013-04-25 22:01:00,
2013-04-25 18:06:00,70.9,40.2,30.09,North,0,0.0,0.0,33,0.00,,,0.00,WUHU216HW,2013-04-25 22:06:00,
2013-04-25 18:30:00,70.6,41.4,30.09,North,0,0.0,0.0,35,0.00,,,0.00,WUHU216HW,2013-04-25 22:30:00,
2013-04-25 18:31:00,70.6,41.4,30.09,North,0,0.0,0.0,35,0.00,,,0.00,WUHU216HW,2013-04-25 22:31:00,
2013-04-25 18:36:00,70.6,41.4,30.09,North,0,0.0,0.0,35,0.00,,,0.00,WUHU216HW,2013-04-25 22:36:00,
2013-04-25 19:00:00,69.1,42.3,30.09,North,0,0.0,0.0,38,0.00,,,0.00,WUHU216HW,2013-04-25 23:00:00,
2013-04-25 19:01:00,69.1,42.3,30.09,North,0,0.0,0.0,38,0.00,,,0.00,WUHU216HW,2013-04-25 23:01:00,
2013-04-25 19:06:00,69.1,42.3,30.09,North,0,0.0,0.0,38,0.00,,,0.00,WUHU216HW,2013-04-25 23:06:00,
2013-04-25 19:30:00,67.7,43.1,30.10,North,0,0.0,0.0,41,0.00,,,0.00,WUHU216HW,2013-04-25 23:30:00,
2013-04-25 19:31:00,67.7,43.1,30.10,North,0,0.0,0.0,41,0.00,,,0.00,WUHU216HW,2013-04-25 23:31:00,
2013-04-25 19:36:00,67.7,43.1,30.10,North,0,0.0,0.0,41,0.00,,,0.00,WUHU216HW,2013-04-25 23:36:00,
2013-04-25 20:00:00,65.7,43.7,30.11,North,0,0.0,0.0,45,0.00,,,0.00,WUHU216HW,2013-04-26 00:00:00,
2013-04-25 20:01:00,65.7,43.7,30.11,North,0,0.0,0.0,45,0.00,,,0.00,WUHU216HW,2013-04-26 00:01:00,
2013-04-25 20:06:00,65.7,43.7,30.11,North,0,0.0,0.0,45,0.00,,,0.00,WUHU216HW,2013-04-26 00:06:00,
2013-04-25 20:30:00,63.7,43.0,30.12,North,0,0.0,0.0,47,0.00,,,0.00,WUHU216HW,2013-04-26 00:30:00,
2013-04-25 20:31:00,63.7,43.0,30.12,North,0,0.0,0.0,47,0.00,,,0.00,WUHU216HW,2013-04-26 00:31:00,
2013-04-25 20:36:00,63.7,43.0,30.12,North,0,0.0,0.0,47,0.00,,,0.00,WUHU216HW,2013-04-26 00:36:00,
2013-04-25 21:00:00,61.9,42.5,30.12,North,0,0.0,0.0,49,0.00,,,0.00,WUHU216HW,2013-04-26 01:00:00,
2013-04-25 21:01:00,61.9,42.5,30.12,North,0,0.0,0.0,49,0.00,,,0.00,WUHU216HW,2013-04-26 01:01:00,
2013-04-25 21:06:00,61.9,42.5,30.12,North,0,0.0,0.0,49,0.00,,,0.00,WUHU216HW,2013-04-26 01:06:00,
2013-04-25 21:30:00,60.3,42.6,30.14,North,0,0.0,0.0,52,0.00,,,0.00,WUHU216HW,2013-04-26 01:30:00,
2013-04-25 21:31:00,60.3,42.6,30.14,North,0,0.0,0.0,52,0.00,,,0.00,WUHU216HW,2013-04-26 01:31:00,
2013-04-25 21:36:00,60.3,42.6,30.14,North,0,0.0,0.0,52,0.00,,,0.00,WUHU216HW,2013-04-26 01:36:00,
2013-04-25 22:00:00,58.7,43.0,30.15,North,0,0.0,0.0,56,0.00,,,0.00,WUHU216HW,2013-04-26 02:00:00,
2013-04-25 22:01:00,58.7,43.0,30.15,North,0,0.0,0.0,56,0.00,,,0.00,WUHU216HW,2013-04-26 02:01:00,
2013-04-25 22:06:00,58.7,43.0,30.15,North,0,0.0,0.0,56,0.00,,,0.00,WUHU216HW,2013-04-26 02:06:00,
2013-04-25 22:30:00,57.6,42.9,30.16,North,0,0.0,0.0,58,0.00,,,0.00,WUHU216HW,2013-04-26 02:30:00,
2013-04-25 22:31:00,57.6,42.9,30.16,North,0,0.0,0.0,58,0.00,,,0.00,WUHU216HW,2013-04-26 02:31:00,
2013-04-25 22:36:00,57.6,42.9,30.16,North,0,0.0,0.0,58,0.00,,,0.00,WUHU216HW,2013-04-26 02:36:00,
2013-04-25 23:00:00,56.5,43.2,30.16,North,0,0.0,0.0,61,0.00,,,0.00,WUHU216HW,2013-04-26 03:00:00,
2013-04-25 23:01:00,56.5,43.2,30.16,North,0,0.0,0.0,61,0.00,,,0.00,WUHU216HW,2013-04-26 03:01:00,
2013-04-25 23:06:00,56.5,43.2,30.16,North,0,0.0,0.0,61,0.00,,,0.00,WUHU216HW,2013-04-26 03:06:00,
2013-04-25 23:30:00,55.4,43.0,30.16,North,0,0.0,0.0,63,0.00,,,0.00,WUHU216HW,2013-04-26 03:30:00,
2013-04-25 23:31:00,55.4,43.0,30.16,North,0,0.0,0.0,63,0.00,,,0.00,WUHU216HW,2013-04-26 03:31:00,
2013-04-25 23:36:00,55.4,43.0,30.16,North,0,0.0,0.0,63,0.00,,,0.00,WUHU216HW,2013-04-26 03:36:00,